Regional Weather Roundup
Issued by NWS

Home | Current Version | Previous Version | Text Only | Print | Product List | Glossary On
Versions: 1 2 3 4 5 6 7 8 9 10 11 12 13 14 15 16 17 18 19 20 21 22 23 24 25 26 27 28 29 30 31 32 33 34 35 36 37 38 39 40 41 42 43 44 45 46 47 48 49 50
000
ASUS44 KLUB 041210
RWRTX
WEST TEXAS WEATHER ROUNDUP
NATIONAL WEATHER SERVICE LUBBOCK TX
700 AM CDT TUE AUG 04 2015

NOTE: "FAIR" INDICATES FEW OR NO CLOUDS BELOW 12,000 FEET WITH NO
SIGNIFICANT WEATHER AND/OR OBSTRUCTIONS TO VISIBILITY.

TXZ004-006>008-010-012-014-016-OKZ002-041300-
TEXAS PANHANDLE/OKLAHOMA PANHANDLE

CITY           SKY/WX    TMP DP  RH WIND       PRES   REMARKS
AMARILLO       MOCLDY    66  64  93 S10       30.03F
BORGER         MOCLDY    66  62  87 SW7       29.99F
CANADIAN       CLOUDY    69  67  94 SE8       29.95F
DALHART        CLEAR     62  60  93 SW6       30.08R
DUMAS          PTCLDY    62  60  94 SW8       30.03S
GUYMON         PTCLDY    65  61  87 N5        29.98R
HEREFORD       CLEAR     65  65  97 MISG      30.07F FOG
PAMPA          CLOUDY    67  64  89 SW3       30.01S
$$

TXZ026-029-035-045-048-041300-
SOUTHERN PANHANDLE/SOUTH PLAINS/ROLLING PLAINS

CITY           SKY/WX    TMP DP  RH WIND       PRES   REMARKS
CHILDRESS      CLOUDY    71  67  87 NE6       30.00R
SEMINOLE       PTCLDY    68  66  93 W6        30.05R
LUBBOCK        MOCLDY    67  63  87 NE12      30.06R
PLAINVIEW      MOCLDY    67  60  77 N7        30.05R
SNYDER         MOCLDY    72  65  79 CALM      30.01R
$$

TXZ052-054-060>062-072-078-127-140-154-169-041300-
PERMIAN BASIN/CONCHO VALLEY/BIG COUNTRY/EDWARDS PLATEAU

CITY           SKY/WX    TMP DP  RH WIND       PRES   REMARKS
ABILENE        PTCLDY    76  59  55 S5        29.96R
BIG SPRING     CLOUDY    70  67  89 W3        30.03R
BRADY          CLEAR     73  64  73 CALM      29.99R
BROWNWOOD      PTCLDY    73  63  68 SE5       29.98R
JUNCTION       CLEAR     75  69  81 SE5       29.98R
MIDLAND        PTCLDY    71  67  87 SW5       30.02R
ODESSA         PTCLDY    70  67  90 SW3       30.03R
SAN ANGELO     PTCLDY    77  63  61 S7        29.97R
SONORA         PTCLDY    75  68  78 S7        30.03R
SWEETWATER     MOCLDY    74  65  74 CALM      30.02R
WINK           CLEAR     70  68  93 NE5       30.00R
$$

TXZ055-058-074-075-080-082-041300-
FAR WEST/SOUTHWEST MOUNTAINS/TRANS PECOS

CITY           SKY/WX    TMP DP  RH WIND       PRES   REMARKS
ALPINE         PTCLDY    69  56  64 CALM      30.16R
DRYDEN           N/A     78  66  66 VRB7      29.96R
EL PASO        PTCLDY    73  60  63 S8        30.08R
FORT STOCKTON  PTCLDY    72  61  68 SE3       30.01S
GUADALUPE PASS CLEAR     64  59  83 SW14      30.19R
MARFA          PTCLDY    61  57  88 N7        30.14
PECOS          MOCLDY    73  65  76 N5        30.00R
PRESIDIO       FAIR      75  65  71 MISG      29.99R
$$

TXZ014-016-019-021>030-083-041300
TEXAS TECH WEST TEXAS MESONET/TEXAS PANHANDLE/NORTHERN SOUTH PLAINS

CITY           SKY/WX    TMP DP  RH WIND       PRES   REMARKS
ABERNATHY 5ENE   N/A     65  62  90 NE9       30.08R
AMARILLO 9NNE    N/A     65  64  96 S6        30.01F
AMARILLO 7SSE    N/A     65  64  96 S7        30.05F
AMHERST 1NE      N/A     63  61  96 NE3       30.06R
BOOTLEG 11WNW    N/A     62  60  94 S7        30.12S
CANADIAN 6E      N/A     67  67  98 E8        29.94F
CAPROCK CYN SP   N/A     67  65  93 SE3       30.03R
CHILDRESS 2NNE   N/A     69  65  89 N6        29.99R
CLARENDON 2WSW   N/A     66  62  89 SE1       30.02F
CLAUDE 12SW      N/A     66  65  97 NE5       30.04F
DIMMITT 2NE      N/A     63  62  94 NE5       30.08S
FLOYDADA 2NNE    N/A     67  65  92 N6        30.06S
FRIONA 2NE       N/A     63  62  95 E5        30.09F
GOODLETT 3W      N/A     71  68  89 N9        29.96R
HART 3N          N/A     64  62  92 N3        30.07S
HEREFORD 2NW     N/A     64  62  93 E2        30.07F
MEMPHIS 1NE      N/A     67  64  89 N2        29.99S
MULESHOE 2SSW    N/A     61  60  96 NW3       30.07R
OLTON 6S         N/A     64  61  91 N5        30.06R
PALO DURO SP     N/A     65  64  96 SW2       30.05F
PAMPA 2E         N/A     65  63  93 S3        30.00S
PLAINVIEW 1S     N/A     67  65  91 N6        30.05S
SILVERTON 7ESE   N/A     67  64  91 N3        30.05S
TULIA 2ENE       N/A     65  64  96 NW3       30.06S
TURKEY 2WSW      N/A     68  66  93 CALM      30.02S
UMBARGER 3NNE    N/A     64  64  97 SE2       30.07F
$$

TXZ033>036-039>041-045>048-041300
TEXAS TECH WEST TEXAS MESONET/SOUTH PLAINS

CITY           SKY/WX    TMP DP  RH WIND       PRES   REMARKS
AIKEN 3WSW       N/A     66  65  97 E6        30.08R
ANDREWS 2NE      N/A     70  67  89 SW6       30.04R
ANTON 6SSW       N/A     63  62  95 NW5       30.05R
BROWNFIELD 2S    N/A     66  64  93 S5        30.04R
DENVR CTY 7WNW   N/A     65  62  90 SW7       30.06R
GAIL 2ESE        N/A     70  67  90 CALM      30.01R
LAMESA 2SE       N/A     69  68  97 W5        30.04R
LEVELLAND 4S     N/A     64  62  92 SW5       30.04S
LUBBOCK 3WNW     N/A     65  62  89 E1        30.06R
MORTON 1ENE      N/A     63  61  95 CALM      30.06R
ODONNELL 1N      N/A     69  66  90 SW2       30.04R
PLAINS 3N        N/A     62  60  91 SW6       30.05S
RALLS 1SE      LGT RAIN  69  65  88 N10       30.06R
REESE CENTER     N/A     64  62  93 E6        30.05R
SEAGRAVES 1SW    N/A     66  64  95 SW5       30.04S
SEMINOLE 2NNE    N/A     68  64  87 SW5       30.04R
SLATON 2NE       N/A     70  66  88 N1        30.04R
SNYDER 3E        N/A     73  64  75 W3        30.00R
SUNDOWN 8SW      N/A     61  59  93 SW6       30.05R
TAHOKA 3NNE      N/A     69  66  91 SW3       30.04R
WOLFFORTH 6SSW   N/A     67  64  90 SE5       30.05R
$$

TXZ031-032-036>038-042>044-041300-
TEXAS TECH WEST TEXAS MESONET/ROLLING PLAINS

CITY           SKY/WX    TMP DP  RH WIND       PRES   REMARKS
ASPERMONT 3NE    N/A     74  66  76 W3        29.97R
FLUVANNA 3WNW    N/A     70  66  87 S1        30.02R
GUTHRIE 10WSW    N/A     74  67  79 NW6       29.98R
HASKELL 1NW      N/A     75  59  57 SW5       29.95R
JAYTON 1SSE      N/A     73  65  74 NW2       29.99R
KNOX CITY 3NW    N/A     76  64  66 SW2       29.95R
LK A HENRY 1NW   N/A     73  66  80 N5        30.01R
NORTHFIELD 1S    N/A     70  67  90 N7        30.00S
ODELL 4ENE       N/A     72  70  92 NE8       29.95R
PADUCAH 10SW     N/A     72  69  90 N9        29.99R
POST 1NE         N/A     71  66  84 NE5       30.03R
RRING SPRGS 3N   N/A     70  68  95 N10       30.03R
SEYMOUR 3NW      N/A     75  65  72 SW2       29.93R
SPUR 1W          N/A     72  67  85 N3        30.00R
WEINERT 2NNE     N/A     74  63  67 SW3       29.95R
WHITE RVR 6NE    N/A     70  65  85 N9        30.03R
$$

TXZ052-054-060>062-072-078-127-140-154-169-041300-
TEXAS TECH WEST TEXAS MESONET/PERMIAN BASIN/
CONCHO VALLEY/BIG COUNTRY/EDWARDS PLATEAU

CITY           SKY/WX    TMP DP  RH WIND       PRES   REMARKS
COYANOSA 2N      N/A     71  69  92 E5        30.00R
JUNCTION 1SSW    N/A     73  69  87 S2        29.99R
MERTZON 3NNE     N/A     74  63  69 S5        30.01R
SAN ANGELO 7NW   N/A     76  61  59 S5        29.98R
STRLNG CT 4WSW   N/A     75  64  69 SE5       30.00R
ST LAWRNCE 5SW   N/A     73  64  74 CALM      30.02R
SWEETWATR 11SW   N/A     73  65  77 S3        30.01R
WALL 1E          N/A     75  57  54 S7        29.99R
$$

TXZ055-058-074-075-080-082-041300-
TEXAS TECH WEST TEXAS MESONET/FAR WEST/SOUTHWEST MOUNTAINS/TRANS PECOS

CITY           SKY/WX    TMP DP  RH WIND       PRES   REMARKS
PRSMN GAP BBNP   N/A     78  56  47 NE5       30.00S
$$



USA.gov is the U.S. government's official web portal to all federal, state and local government web resources and services.